TimeEST,TemperatureF,Dew PointF,Humidity,Sea Level PressureIn,VisibilityMPH,Wind Direction,Wind SpeedMPH,Gust SpeedMPH,PrecipitationIn,Events,Conditions,WindDirDegrees,DateUTC
12:15 AM,24.8,24.8,100,30.04,8.0,Calm,Calm,-,N/A,,Clear,0,2012-12-28 05:15:00
12:35 AM,24.8,24.8,100,30.03,9.0,Calm,Calm,-,N/A,,Clear,0,2012-12-28 05:35:00
12:55 AM,23.0,23.0,100,30.02,10.0,Calm,Calm,-,N/A,,Clear,0,2012-12-28 05:55:00
1:15 AM,23.0,23.0,100,30.02,10.0,Calm,Calm,-,N/A,,Clear,0,2012-12-28 06:15:00
1:35 AM,24.8,24.8,100,30.03,10.0,Calm,Calm,-,N/A,,Clear,0,2012-12-28 06:35:00
1:55 AM,23.0,21.2,93,30.03,10.0,Calm,Calm,-,N/A,,Clear,0,2012-12-28 06:55:00
2:15 AM,23.0,21.2,93,30.03,10.0,Calm,Calm,-,N/A,,Clear,0,2012-12-28 07:15:00
2:35 AM,23.0,21.2,93,30.04,10.0,Calm,Calm,-,N/A,,Clear,0,2012-12-28 07:35:00
2:55 AM,23.0,21.2,93,30.04,10.0,Calm,Calm,-,N/A,,Clear,0,2012-12-28 07:55:00
3:15 AM,23.0,23.0,100,30.04,9.0,Calm,Calm,-,N/A,,Clear,0,2012-12-28 08:15:00
3:35 AM,23.0,21.2,93,30.03,10.0,Calm,Calm,-,N/A,,Clear,0,2012-12-28 08:35:00
3:55 AM,23.0,21.2,93,30.03,10.0,East,4.6,-,N/A,,Clear,90,2012-12-28 08:55:00
4:15 AM,21.2,21.2,100,30.02,10.0,East,3.5,-,N/A,,Clear,90,2012-12-28 09:15:00
4:35 AM,21.2,21.2,100,30.02,10.0,Calm,Calm,-,N/A,,Clear,0,2012-12-28 09:35:00
4:55 AM,21.2,21.2,100,30.01,10.0,Variable,4.6,-,N/A,,Clear,0,2012-12-28 09:55:00
5:15 AM,21.2,21.2,100,30.02,10.0,Calm,Calm,-,N/A,,Clear,0,2012-12-28 10:15:00
5:35 AM,21.2,21.2,100,30.01,10.0,Calm,Calm,-,N/A,,Clear,0,2012-12-28 10:35:00
5:55 AM,21.2,21.2,100,30.02,10.0,Calm,Calm,-,N/A,,Clear,0,2012-12-28 10:55:00
6:15 AM,21.2,21.2,100,30.02,10.0,Calm,Calm,-,N/A,,Clear,0,2012-12-28 11:15:00
6:55 AM,21.2,21.2,100,30.01,10.0,Variable,3.5,-,N/A,,Clear,0,2012-12-28 11:55:00
7:15 AM,21.2,21.2,100,30.01,10.0,East,3.5,-,N/A,,Clear,90,2012-12-28 12:15:00
7:35 AM,21.2,21.2,100,30.00,10.0,ENE,3.5,-,N/A,,Clear,70,2012-12-28 12:35:00
7:55 AM,21.2,21.2,100,30.01,10.0,ENE,3.5,-,N/A,,Clear,70,2012-12-28 12:55:00
8:15 AM,21.2,21.2,100,30.01,10.0,Calm,Calm,-,N/A,,Clear,0,2012-12-28 13:15:00
8:35 AM,21.2,21.2,100,30.00,10.0,Calm,Calm,-,N/A,,Scattered Clouds,0,2012-12-28 13:35:00
8:55 AM,21.2,21.2,100,30.02,9.0,Calm,Calm,-,N/A,,Mostly Cloudy,0,2012-12-28 13:55:00
9:15 AM,23.0,23.0,100,30.01,10.0,Calm,Calm,-,N/A,,Mostly Cloudy,0,2012-12-28 14:15:00
9:35 AM,24.8,24.8,100,30.02,10.0,Calm,Calm,-,N/A,,Mostly Cloudy,0,2012-12-28 14:35:00
9:55 AM,24.8,24.8,100,30.02,10.0,Calm,Calm,-,N/A,,Mostly Cloudy,0,2012-12-28 14:55:00
10:15 AM,24.8,24.8,100,30.00,10.0,Calm,Calm,-,N/A,,Mostly Cloudy,0,2012-12-28 15:15:00
10:35 AM,24.8,24.8,100,29.99,10.0,Calm,Calm,-,N/A,,Partly Cloudy,0,2012-12-28 15:35:00
10:55 AM,26.6,26.6,100,29.99,10.0,NNW,6.9,-,N/A,,Mostly Cloudy,330,2012-12-28 15:55:00
11:15 AM,26.6,26.6,100,30.01,10.0,NW,8.1,-,N/A,,Scattered Clouds,320,2012-12-28 16:15:00
11:35 AM,28.4,28.4,100,30.05,10.0,WSW,5.8,-,N/A,,Partly Cloudy,240,2012-12-28 16:35:00
11:55 AM,28.4,28.4,100,30.03,10.0,Calm,Calm,-,N/A,,Clear,0,2012-12-28 16:55:00
12:15 PM,28.4,28.4,100,30.01,10.0,Calm,Calm,-,N/A,,Clear,0,2012-12-28 17:15:00
12:55 PM,32.0,28.4,87,29.98,10.0,Calm,Calm,-,N/A,,Clear,0,2012-12-28 17:55:00
1:15 PM,30.2,28.4,93,29.97,10.0,Calm,Calm,-,N/A,,Clear,0,2012-12-28 18:15:00
1:35 PM,33.8,30.2,87,29.96,10.0,Calm,Calm,-,N/A,,Clear,0,2012-12-28 18:35:00
1:55 PM,33.8,30.2,87,29.96,10.0,South,3.5,-,N/A,,Clear,180,2012-12-28 18:55:00
2:15 PM,32.0,30.2,93,29.95,10.0,Calm,Calm,-,N/A,,Clear,0,2012-12-28 19:15:00
2:35 PM,33.8,30.2,87,29.95,10.0,Calm,Calm,-,N/A,,Clear,0,2012-12-28 19:35:00
2:55 PM,33.8,32.0,93,29.92,10.0,SE,3.5,-,N/A,,Clear,140,2012-12-28 19:55:00
3:15 PM,33.8,32.0,93,29.92,10.0,Calm,Calm,-,N/A,,Clear,0,2012-12-28 20:15:00
3:35 PM,35.6,32.0,87,29.92,10.0,Calm,Calm,-,N/A,,Clear,0,2012-12-28 20:35:00
3:55 PM,35.6,33.8,93,29.92,10.0,Calm,Calm,-,N/A,,Clear,0,2012-12-28 20:55:00
4:15 PM,35.6,33.8,93,29.92,10.0,Calm,Calm,-,N/A,,Clear,0,2012-12-28 21:15:00
4:35 PM,33.8,32.0,93,29.91,10.0,North,3.5,-,N/A,,Partly Cloudy,10,2012-12-28 21:35:00
4:55 PM,35.6,28.4,75,29.91,10.0,Calm,Calm,-,N/A,,Mostly Cloudy,0,2012-12-28 21:55:00
5:15 PM,33.8,28.4,81,29.90,10.0,Calm,Calm,-,N/A,,Overcast,0,2012-12-28 22:15:00
5:35 PM,35.6,30.2,81,29.92,10.0,West,3.5,-,N/A,,Overcast,260,2012-12-28 22:35:00
5:55 PM,33.8,30.2,87,29.92,10.0,Calm,Calm,-,N/A,,Overcast,0,2012-12-28 22:55:00
6:15 PM,33.8,30.2,87,29.92,10.0,Calm,Calm,-,N/A,,Mostly Cloudy,0,2012-12-28 23:15:00
6:35 PM,33.8,32.0,93,29.92,10.0,NNW,3.5,-,N/A,,Overcast,340,2012-12-28 23:35:00
6:55 PM,33.8,30.2,87,29.92,10.0,Calm,Calm,-,N/A,,Overcast,0,2012-12-28 23:55:00
7:15 PM,32.0,32.0,100,29.92,10.0,Variable,3.5,-,N/A,,Mostly Cloudy,0,2012-12-29 00:15:00
7:35 PM,32.0,30.2,93,29.91,10.0,Calm,Calm,-,N/A,,Partly Cloudy,0,2012-12-29 00:35:00
8:15 PM,33.8,30.2,87,29.90,10.0,Calm,Calm,-,N/A,,Mostly Cloudy,0,2012-12-29 01:15:00
8:35 PM,33.8,30.2,87,29.88,10.0,South,3.5,-,N/A,,Mostly Cloudy,170,2012-12-29 01:35:00
8:55 PM,35.6,24.8,65,29.87,10.0,SE,3.5,-,N/A,,Mostly Cloudy,140,2012-12-29 01:55:00
9:15 PM,33.8,30.2,87,29.85,10.0,Calm,Calm,-,N/A,,Mostly Cloudy,0,2012-12-29 02:15:00
9:35 PM,32.0,30.2,93,29.82,10.0,Variable,3.5,-,N/A,,Clear,0,2012-12-29 02:35:00
9:55 PM,35.6,28.4,75,29.83,10.0,Variable,4.6,-,N/A,,Mostly Cloudy,0,2012-12-29 02:55:00
10:15 PM,35.6,28.4,75,29.81,10.0,ESE,8.1,-,N/A,,Overcast,120,2012-12-29 03:15:00
10:35 PM,35.6,30.2,81,29.81,10.0,Variable,3.5,-,N/A,,Overcast,0,2012-12-29 03:35:00
11:55 PM,37.4,32.0,81,29.76,10.0,East,6.9,-,N/A,,Mostly Cloudy,100,2012-12-29 04:55:00